• In Uzbekistan
  • List of Countries
  • For 7 days
  • Water Temperature
  • Satellite Maps
  • Weather Map
  • Weather Widgets
  • user-avatar
    Login

    Hourly Weather Mulhule

    Today, 17 October, Wednesday

    Time Temperature Precipitation Wind Pressure Humidity
    00:00 +34°C° 0 mm 6 mps 757 mmHg 62%
    01:00 +34°C° 0 mm 6 mps 757 mmHg 64%
    02:00 +33°C° 0 mm 6 mps 757 mmHg 67%
    03:00 +33°C° 0 mm 7 mps 756 mmHg 69%
    04:00 +33°C° 0 mm 7 mps 757 mmHg 70%
    05:00 +32°C° 0 mm 7 mps 757 mmHg 72%
    06:00 +32°C° 0 mm 7 mps 757 mmHg 73%
    07:00 +33°C° 0 mm 7 mps 758 mmHg 66%
    08:00 +34°C° 0 mm 8 mps 758 mmHg 60%
    09:00 +37°C° 0 mm 8 mps 758 mmHg 53%
    10:00 +38°C° 0 mm 8 mps 758 mmHg 49%
    11:00 +38°C° 0 mm 9 mps 758 mmHg 46%
    12:00 +39°C° 0 mm 9 mps 757 mmHg 43%
    13:00 +39°C° 0 mm 9 mps 757 mmHg 43%
    14:00 +39°C° 0 mm 9 mps 756 mmHg 43%
    15:00 +39°C° 0 mm 9 mps 755 mmHg 43%
    16:00 +38°C° 0 mm 9 mps 755 mmHg 47%
    17:00 +37°C° 0 mm 9 mps 755 mmHg 50%
    18:00 +35°C° 0 mm 8 mps 755 mmHg 54%
    19:00 +34°C° 0 mm 8 mps 756 mmHg 56%
    20:00 +34°C° 0 mm 8 mps 756 mmHg 59%
    21:00 +34°C° 0 mm 8 mps 757 mmHg 61%
    22:00 +33°C° 0 mm 8 mps 757 mmHg 63%
    23:00 +33°C° 0 mm 8 mps 757 mmHg 64%

    Tomorrow, 18 October, Thursday

    Time Temperature Precipitation Wind Pressure Humidity
    00:00 +33°C° 0 mm 8 mps 757 mmHg 66%
    01:00 +32°C° 0 mm 8 mps 757 mmHg 68%
    02:00 +32°C° 0 mm 8 mps 756 mmHg 70%
    03:00 +32°C° 0 mm 8 mps 756 mmHg 72%
    04:00 +32°C° 0 mm 8 mps 756 mmHg 74%
    05:00 +31°C° 0 mm 9 mps 757 mmHg 75%
    06:00 +31°C° 0 mm 9 mps 757 mmHg 77%
    07:00 +32°C° 0 mm 9 mps 757 mmHg 70%
    08:00 +33°C° 0 mm 10 mps 757 mmHg 64%
    09:00 +34°C° 0 mm 10 mps 758 mmHg 58%
    10:00 +36°C° 0 mm 10 mps 757 mmHg 54%
    11:00 +37°C° 0 mm 10 mps 757 mmHg 51%
    12:00 +38°C° 0 mm 10 mps 757 mmHg 48%
    13:00 +38°C° 0 mm 10 mps 756 mmHg 48%
    14:00 +38°C° 0 mm 10 mps 755 mmHg 48%
    15:00 +38°C° 0 mm 10 mps 755 mmHg 49%
    16:00 +37°C° 0 mm 9 mps 755 mmHg 53%
    17:00 +35°C° 0 mm 9 mps 755 mmHg 56%
    18:00 +34°C° 0 mm 9 mps 755 mmHg 60%
    19:00 +34°C° 0.1 mm 8 mps 756 mmHg 62%
    20:00 +33°C° 0.1 mm 8 mps 756 mmHg 64%
    21:00 +33°C° 0.1 mm 8 mps 757 mmHg 66%
    22:00 +33°C° 0 mm 8 mps 757 mmHg 67%
    23:00 +33°C° 0 mm 8 mps 757 mmHg 67%

    Day after tomorrow, 19 October, Friday

    Time Temperature Precipitation Wind Pressure Humidity
    00:00 +33°C° 0 mm 8 mps 757 mmHg 68%
    01:00 +32°C° 0 mm 8 mps 756 mmHg 70%
    02:00 +32°C° 0 mm 8 mps 756 mmHg 71%
    03:00 +32°C° 0 mm 8 mps 756 mmHg 73%
    04:00 +32°C° 0.4 mm 8 mps 756 mmHg 74%
    05:00 +32°C° 0.4 mm 8 mps 756 mmHg 75%
    06:00 +32°C° 0.4 mm 8 mps 756 mmHg 75%
    07:00 +33°C° 0.3 mm 8 mps 757 mmHg 69%
    08:00 +33°C° 0.3 mm 9 mps 758 mmHg 63%
    09:00 +34°C° 0.3 mm 9 mps 758 mmHg 57%
    10:00 +35°C° 0.3 mm 9 mps 758 mmHg 54%
    11:00 +37°C° 0.3 mm 9 mps 758 mmHg 51%
    12:00 +37°C° 0.3 mm 10 mps 758 mmHg 48%
    13:00 +37°C° 0 mm 9 mps 757 mmHg 49%
    14:00 +37°C° 0 mm 9 mps 757 mmHg 50%
    15:00 +37°C° 0 mm 9 mps 756 mmHg 51%
    16:00 +35°C° 0 mm 8 mps 756 mmHg 53%
    17:00 +34°C° 0 mm 7 mps 756 mmHg 55%
    18:00 +34°C° 0 mm 7 mps 756 mmHg 57%
    19:00 +34°C° 0 mm 7 mps 757 mmHg 59%
    20:00 +34°C° 0 mm 6 mps 757 mmHg 60%
    21:00 +33°C° 0 mm 6 mps 758 mmHg 62%
    22:00 +33°C° 0 mm 6 mps 758 mmHg 63%
    23:00 +33°C° 0 mm 6 mps 758 mmHg 65%

    20 October, Saturday

    Time Temperature Precipitation Wind Pressure Humidity
    00:00 +33°C° 0 mm 6 mps 758 mmHg 66%
    01:00 +32°C° 0 mm 6 mps 757 mmHg 68%
    02:00 +32°C° 0 mm 7 mps 757 mmHg 70%
    03:00 +32°C° 0 mm 7 mps 757 mmHg 72%
    04:00 +32°C° 0 mm 7 mps 757 mmHg 74%
    05:00 +30°C° 0 mm 7 mps 758 mmHg 76%
    06:00 +30°C° 0 mm 7 mps 758 mmHg 78%
    07:00 +32°C° 0.1 mm 7 mps 758 mmHg 72%
    08:00 +33°C° 0.1 mm 8 mps 759 mmHg 65%
    09:00 +35°C° 0.1 mm 8 mps 759 mmHg 59%
    10:00 +37°C° 0 mm 8 mps 759 mmHg 54%
    11:00 +38°C° 0 mm 8 mps 758 mmHg 50%
    12:00 +39°C° 0 mm 8 mps 758 mmHg 45%
    13:00 +38°C° 0 mm 8 mps 757 mmHg 45%
    14:00 +38°C° 0 mm 8 mps 757 mmHg 46%
    15:00 +38°C° 0 mm 8 mps 756 mmHg 46%
    16:00 +37°C° 0 mm 8 mps 756 mmHg 51%
    17:00 +35°C° 0 mm 8 mps 756 mmHg 56%
    18:00 +34°C° 0 mm 7 mps 757 mmHg 60%
    19:00 +34°C° 0 mm 7 mps 757 mmHg 63%
    20:00 +34°C° 0 mm 7 mps 758 mmHg 65%
    21:00 +33°C° 0 mm 7 mps 758 mmHg 67%
    22:00 +33°C° 0 mm 7 mps 758 mmHg 69%
    23:00 +33°C° 0 mm 7 mps 758 mmHg 70%

    21 October, Sunday

    Time Temperature Precipitation Wind Pressure Humidity
    00:00 +32°C° 0 mm 7 mps 758 mmHg 71%
    01:00 +32°C° 0 mm 7 mps 757 mmHg 73%
    02:00 +32°C° 0 mm 7 mps 757 mmHg 74%
    03:00 +32°C° 0 mm 7 mps 757 mmHg 75%
    04:00 +30°C° 0 mm 7 mps 757 mmHg 76%
    05:00 +30°C° 0 mm 7 mps 758 mmHg 77%
    06:00 +30°C° 0 mm 7 mps 758 mmHg 78%
    07:00 +32°C° 0.1 mm 8 mps 759 mmHg 73%
    08:00 +33°C° 0.1 mm 8 mps 759 mmHg 69%
    09:00 +34°C° 0.1 mm 9 mps 760 mmHg 64%
    10:00 +35°C° 0.1 mm 9 mps 759 mmHg 61%
    11:00 +35°C° 0.1 mm 9 mps 759 mmHg 58%
    12:00 +37°C° 0.1 mm 9 mps 758 mmHg 55%
    13:00 +37°C° 0 mm 9 mps 757 mmHg 55%
    14:00 +37°C° 0 mm 9 mps 757 mmHg 55%
    15:00 +37°C° 0 mm 9 mps 756 mmHg 55%
    16:00 +35°C° 0 mm 8 mps 757 mmHg 59%
    17:00 +34°C° 0 mm 8 mps 757 mmHg 62%
    18:00 +33°C° 0 mm 8 mps 757 mmHg 66%
    19:00 +33°C° 0 mm 8 mps 758 mmHg 67%
    20:00 +33°C° 0 mm 8 mps 758 mmHg 68%
    21:00 +32°C° 0 mm 8 mps 759 mmHg 69%
    22:00 +32°C° 0 mm 8 mps 758 mmHg 70%
    23:00 +32°C° 0 mm 8 mps 758 mmHg 70%

    22 October, Monday

    Time Temperature Precipitation Wind Pressure Humidity
    00:00 +32°C° 0 mm 8 mps 758 mmHg 71%
    01:00 +31°C° 0 mm 8 mps 758 mmHg 72%
    02:00 +31°C° 0 mm 8 mps 758 mmHg 73%
    03:00 +31°C° 0 mm 8 mps 757 mmHg 74%
    04:00 +31°C° 0 mm 8 mps 758 mmHg 75%
    05:00 +31°C° 0 mm 8 mps 758 mmHg 75%
    06:00 +31°C° 0 mm 8 mps 759 mmHg 76%
    07:00 +32°C° 0 mm 8 mps 759 mmHg 71%
    08:00 +33°C° 0 mm 9 mps 759 mmHg 66%
    09:00 +34°C° 0 mm 9 mps 760 mmHg 61%
    10:00 +34°C° 0 mm 9 mps 759 mmHg 58%
    11:00 +35°C° 0 mm 9 mps 759 mmHg 55%
    12:00 +37°C° 0 mm 9 mps 758 mmHg 52%
    13:00 +37°C° 0 mm 9 mps 757 mmHg 52%
    14:00 +37°C° 0 mm 9 mps 757 mmHg 52%
    15:00 +37°C° 0 mm 9 mps 756 mmHg 51%
    16:00 +35°C° 0 mm 9 mps 757 mmHg 55%
    17:00 +34°C° 0 mm 9 mps 757 mmHg 58%
    18:00 +33°C° 0 mm 8 mps 757 mmHg 62%
    19:00 +33°C° 0 mm 8 mps 758 mmHg 64%
    20:00 +32°C° 0 mm 9 mps 758 mmHg 66%
    21:00 +32°C° 0 mm 9 mps 759 mmHg 68%
    22:00 +32°C° 0 mm 8 mps 759 mmHg 70%
    23:00 +31°C° 0 mm 8 mps 758 mmHg 71%
    Show more